FW5402 Weather Reports


time (UTC)temp
C
wind
direction
speed
KPH
gust
KPH
rain 1hr
cm
rain 24hr
cm
rain mn
cm
humidity
%
barometer
mb
20260506234528 12 65 0.0 3.2 0.00 2.82 2.82 87 1015.8
20260506233030 12 0 0.0 4.8 0.00 2.82 2.82 88 1015.7
20260506231528 12 38 0.0 3.2 0.00 2.82 2.82 88 1015.5
20260506230031 12 120 0.0 1.6 0.00 2.82 2.82 88 1015.5
20260506224528 12 139 1.6 4.8 0.00 2.82 2.82 86 1015.5
20260506223030 12 143 1.6 4.8 0.00 2.82 2.82 86 1015.4
20260506221528 12 113 3.2 6.4 0.00 2.82 2.82 85 1015.0
20260506220032 12 0 1.6 8.0 0.00 2.82 2.82 85 1015.0
20260506214531 12 109 4.8 11.3 0.00 2.82 2.82 85 1014.8
20260506213028 12 110 3.2 9.7 0.00 2.82 2.82 86 1014.3
20260506211530 12 125 4.8 12.9 0.00 2.82 2.82 85 1014.8
20260506210027 12 53 8.0 17.7 0.00 2.82 2.82 86 1015.2
20260506204529 12 86 4.8 12.9 0.00 2.84 2.82 90 1014.3
20260506203029 11 106 1.6 9.7 0.03 2.84 2.82 90 1014.8
20260506201528 11 0 3.2 12.9 0.05 2.84 2.82 92 1015.0
20260506200029 11 111 3.2 6.4 0.18 2.84 2.82 93 1015.4
20260506194535 11 32 1.6 4.8 0.23 2.84 2.82 93 1015.8
20260506193031 11 0 0.0 3.2 0.28 2.82 2.79 93 1016.8
20260506191533 11 0 0.0 3.2 0.36 2.79 2.77 92 1016.3
20260506190030 11 0 0.0 4.8 0.28 2.64 2.64 92 1017.3
20260506184530 10 316 1.6 9.7 0.25 2.59 2.57 92 1015.9
20260506183030 11 345 1.6 6.4 0.20 2.51 2.49 92 1016.8
20260506181527 11 304 0.0 4.8 0.13 2.44 2.41 90 1017.6
20260506180032 11 110 0.0 4.8 0.08 2.39 2.36 90 1016.7
20260506174528 11 0 0.0 4.8 0.03 2.34 2.31 89 1017.0
20260506173030 11 7 1.6 11.3 0.00 2.31 2.29 89 1017.2
20260506171532 11 303 1.6 6.4 0.00 2.31 2.29 89 1016.0
20260506170029 11 0 3.2 8.0 0.00 2.31 2.29 88 1016.5
20260506164528 11 50 4.8 8.0 0.00 2.31 2.29 86 1016.2
20260506163031 11 57 3.2 9.7 0.00 2.31 2.29 88 1016.0
20260506161528 11 319 1.6 3.2 0.00 2.31 2.29 88 1016.6
20260506160030 11 92 1.6 6.4 0.00 2.31 2.29 89 1015.6
20260506154530 10 84 1.6 8.0 0.00 2.34 2.29 89 1016.0
20260506153040 10 82 3.2 8.0 0.00 2.34 2.29 88 1015.7
20260506151529 10 139 1.6 11.3 0.00 2.34 2.29 89 1016.2
20260506150030 10 119 1.6 9.7 0.00 2.34 2.29 89 1016.0
20260506144550 10 97 1.6 8.0 0.00 2.39 2.29 90 1016.3
20260506143028 10 0 0.0 12.9 0.00 2.39 2.29 91 1016.0
20260506141528 10 95 4.8 14.5 0.00 2.39 2.29 92 1015.5
20260506140040 9 0 1.6 11.3 0.03 2.39 2.29 93 1015.6
20260506134533 9 49 0.0 9.7 0.03 2.49 2.29 94 1015.9
20260506133028 9 72 1.6 6.4 0.03 2.49 2.29 94 1015.9
20260506131535 9 104 1.6 16.1 1.17 2.49 2.29 94 1015.5
20260506130026 9 78 3.2 12.9 1.37 2.46 2.26 94 1015.2
20260506124530 9 0 0.0 3.2 1.45 2.59 2.26 94 1015.1
20260506123037 9 27 3.2 11.3 1.45 2.59 2.26 94 1014.2
20260506121529 10 316 3.2 9.7 0.25 1.40 1.07 94 1015.4
20260506120033 10 64 4.8 8.0 0.08 1.22 0.89 94 1013.7
20260506114528 10 66 3.2 11.3 0.03 1.19 0.81 94 1013.1
20260506113034 10 73 1.6 4.8 0.03 1.19 0.81 94 1012.7
20260506111527 10 0 0.0 8.0 0.05 1.19 0.81 94 1012.9
20260506110040 10 74 3.2 9.7 0.38 1.19 0.81 94 1012.5
20260506104530 10 77 1.6 8.0 0.38 1.24 0.79 94 1012.6
20260506103030 10 0 3.2 9.7 0.38 1.24 0.79 94 1012.0
20260506101532 10 66 4.8 12.9 0.36 1.22 0.76 94 1011.7
20260506100028 10 84 3.2 6.4 0.03 0.89 0.43 94 1011.3
20260506094531 10 86 1.6 12.9 0.08 0.86 0.41 94 1011.8
20260506093034 10 125 1.6 6.4 0.18 0.86 0.41 94 1012.0
20260506091528 10 210 3.2 11.3 0.18 0.86 0.41 94 1011.7
20260506090037 10 87 6.4 12.9 0.23 0.86 0.41 94 1010.7
20260506084537 11 72 1.6 19.3 0.13 0.76 0.30 94 1012.4
20260506083032 11 98 4.8 11.3 0.05 0.69 0.23 93 1012.0
20260506081528 11 56 8.0 19.3 0.05 0.69 0.23 92 1010.8
20260506073030 11 350 6.4 16.1 0.15 0.64 0.18 93 1009.9
20260506071531 12 85 3.2 20.9 0.15 0.64 0.18 93 1009.7
20260506061528 14 166 6.4 16.1 0.03 0.48 0.03 93 1008.8
20260506044543 20 132 0.0 1.6 0.00 0.46 0.46 97 1005.9
20260506043028 20 0 0.0 0.0 0.00 0.46 0.46 96 1006.7
20260506041533 20 0 0.0 0.0 0.00 0.46 0.46 96 1006.7
20260506040028 20 0 0.0 0.0 0.00 0.46 0.46 96 1006.6
20260506034528 20 0 0.0 0.0 0.00 0.46 0.46 96 1006.5
20260506033030 20 0 0.0 0.0 0.00 0.46 0.46 96 1006.1
20260506031542 20 0 0.0 0.0 0.00 0.46 0.46 96 1006.0
20260506030032 21 0 0.0 0.0 0.00 0.46 0.46 96 1006.4
20260506024532 21 0 0.0 1.6 0.00 0.46 0.46 96 1006.4
20260506023028 20 0 0.0 0.0 0.00 0.46 0.46 95 1006.4
20260506021529 20 0 0.0 0.0 0.00 0.46 0.46 95 1006.2
20260506020030 20 0 0.0 0.0 0.00 0.46 0.46 94 1006.2
20260506014530 21 0 0.0 0.0 0.00 0.46 0.46 94 1006.1
20260506013030 21 0 0.0 0.0 0.00 0.46 0.46 94 1006.0
20260506011527 21 0 0.0 0.0 0.00 0.46 0.46 93 1005.8
20260506010047 21 0 0.0 0.0 0.00 0.46 0.46 93 1005.8
20260506004527 21 0 0.0 0.0 0.00 0.46 0.46 93 1005.5
20260506003030 21 0 0.0 0.0 0.00 0.46 0.46 93 1005.1
20260506001530 21 0 0.0 0.0 0.00 0.46 0.46 92 1005.6
20260506000029 21 0 0.0 0.0 0.00 0.46 0.46 92 1005.6